Simultaneous Nadir Overpasses (SNOs) Predictions

Prediction of SNOs between GOES-17 and METOP-C Satellite Orbit:

Table of predicted SNOs for the next 14.0 days since TLE Epoch: 2/8/2020
Index Date Time (GOES-17) GOES-17 Lat,Lon METOP-C Lat,Lon Distance(km) Time Diff (sec)
1 02/09/2020 06:42:56 0.01,-137.22 -0.20,-138.24 116.06 80
2 02/10/2020 06:24:55 0.01,-137.21 0.92,-133.23 454.16 80
3 02/11/2020 18:41:03 -0.01,-137.22 0.09,-137.78 63.16 80
4 02/14/2020 06:39:18 0.01,-137.20 -0.03,-137.34 16.94 80
5 02/16/2020 18:40:05 -0.02,-137.18 -0.07,-136.88 33.98 80
6 02/18/2020 06:56:22 0.02,-137.16 -0.92,-141.47 490.67 80
7 02/19/2020 06:38:20 0.02,-137.15 0.15,-136.45 78.32 80
8 02/20/2020 18:54:29 -0.03,-137.13 0.83,-141.01 441.45 80
9 02/21/2020 18:36:28 -0.02,-137.12 -0.29,-136.00 127.40 80




NCC Satellite Simultaneous Nadir Overpasses (SNOs) Prediction Service
